Date,TemperatureHighF,TemperatureAvgF,TemperatureLowF,DewpointHighF,DewpointAvgF,DewpointLowF,HumidityHigh,HumidityAvg,HumidityLow,PressureMaxIn,PressureMinIn,WindSpeedMaxMPH,WindSpeedAvgMPH,GustSpeedMaxMPH,PrecipitationSumIn
2013-1-1,62,46,33,52,40,30,90,80,67,30.19,30.03,4,1,4,0.00
2013-1-2,63,42,32,51,36,28,90,80,53,30.17,30.03,6,1,6,0.00
2013-1-3,69,45,31,52,36,26,88,72,48,30.17,30.05,6,1,6,0.00
2013-1-4,66,42,32,47,32,24,86,70,34,30.23,30.07,13,1,13,0.00
2013-1-5,62,45,30,47,37,23,85,72,57,30.22,30.05,12,2,12,0.08
2013-1-6,52,44,40,47,41,37,90,87,82,30.08,30.01,12,4,12,0.14
2013-1-7,61,44,35,53,40,33,92,85,68,30.19,30.04,6,1,6,0.00
2013-1-8,66,48,37,54,41,34,90,79,62,30.13,30.03,5,1,7,0.00
2013-1-9,61,44,35,52,39,30,88,81,64,30.10,29.93,18,2,18,0.02
2013-1-10,54,42,34,46,35,28,89,76,57,30.11,29.95,16,3,16,0.00
2013-1-11,56,41,28,41,32,24,88,71,46,30.17,30.04,12,2,12,0.00
2013-1-12,57,41,32,46,32,23,88,72,44,30.18,30.01,5,1,8,0.02
2013-1-13,58,39,27,40,27,20,84,64,40,30.18,30.03,5,2,5,0.00
2013-1-14,54,37,24,35,24,17,76,59,40,30.34,30.14,8,2,18,0.00
2013-1-15,64,41,25,39,26,17,78,57,33,30.42,30.28,4,1,4,0.00
2013-1-16,75,47,28,45,31,20,77,56,33,30.36,30.15,5,1,5,0.00
2013-1-17,82,51,34,49,33,25,76,53,28,30.19,30.02,5,1,5,0.00
2013-1-18,80,53,32,48,33,22,72,49,25,30.15,30.02,5,1,5,0.00
2013-1-19,79,50,32,47,32,23,73,52,24,30.17,30.03,7,1,7,0.00
2013-1-20,79,52,32,47,34,24,76,53,28,30.16,30.00,8,1,8,0.00
2013-1-21,83,54,37,49,36,28,75,54,30,30.12,29.97,5,1,5,0.00
2013-1-22,78,52,31,49,34,22,74,52,34,30.08,29.94,6,1,7,0.00
2013-1-23,62,51,43,41,35,28,69,55,38,30.03,29.94,9,2,9,0.00
2013-1-24,60,53,48,54,48,40,87,82,68,30.12,29.99,5,1,6,0.39
2013-1-25,66,56,52,60,52,48,91,86,76,30.10,29.95,9,2,9,0.06
2013-1-26,66,54,45,60,49,39,91,84,75,29.99,29.87,14,2,15,0.00
2013-1-27,61,47,38,46,38,32,89,74,52,30.08,29.96,16,4,17,0.00
2013-1-28,60,46,34,46,38,30,87,73,53,30.21,30.07,10,3,10,0.00
2013-1-29,63,49,39,49,40,33,86,74,58,30.26,30.15,12,1,12,0.00
2013-1-30,75,55,36,52,42,32,86,64,43,30.31,30.16,7,1,8,0.00
2013-1-31,81,58,36,55,43,32,87,61,37,30.22,30.05,5,1,6,0.00
2013-2-1,80,54,36,55,40,31,85,61,38,30.15,30.02,6,1,6,0.00
2013-2-2,66,52,44,52,42,35,77,68,58,30.21,30.11,5,1,5,0.00
2013-2-3,72,51,42,58,44,38,88,78,55,30.18,30.01,10,2,10,0.00
2013-2-4,79,53,35,58,44,32,90,74,46,30.13,29.93,8,2,8,0.00
2013-2-5,59,46,41,52,40,36,88,81,74,30.08,29.97,10,2,10,0.00
2013-2-6,68,50,39,54,42,35,90,76,50,30.14,30.00,7,2,7,0.00
2013-2-7,65,47,37,51,40,32,89,76,54,30.12,29.95,15,3,15,0.00
2013-2-8,55,42,35,47,36,30,88,79,66,29.96,29.82,8,1,8,0.08
2013-2-9,64,43,29,49,35,25,89,74,45,30.08,29.93,9,2,9,0.00
2013-2-10,67,45,28,47,34,24,87,69,39,30.07,29.90,8,2,8,0.00
2013-2-11,70,47,30,47,35,24,86,66,37,30.20,30.02,6,2,6,0.00
2013-2-12,74,49,31,49,37,27,86,66,41,30.31,30.17,9,3,9,0.00
2013-2-13,75,51,36,51,38,30,85,65,37,30.29,30.10,6,1,6,0.00
2013-2-14,75,53,36,50,39,31,84,61,36,30.18,30.04,9,2,9,0.00
2013-2-15,84,59,39,54,40,33,81,53,27,30.21,30.08,10,2,10,0.00
2013-2-16,84,59,42,54,39,28,73,51,28,30.16,29.94,9,2,9,0.00
2013-2-17,75,53,36,52,38,28,77,59,33,29.99,29.84,7,3,7,0.00
2013-2-18,52,46,36,45,39,30,86,75,71,30.08,29.90,10,1,10,0.00
2013-2-19,56,44,33,46,37,29,87,77,59,29.92,29.69,20,3,21,0.20
2013-2-20,60,44,30,46,36,27,89,75,49,30.01,29.75,17,4,17,0.02
2013-2-21,66,46,32,48,35,-100,88,71,49,30.10,29.98,8,2,9,0.00
2013-2-22,73,50,31,48,36,27,87,62,34,30.19,30.05,6,2,7,0.00
2013-2-23,68,50,38,47,38,32,86,64,43,30.16,29.96,22,5,22,0.00
2013-2-24,72,50,34,42,33,25,80,55,30,30.19,30.03,11,2,11,0.00
2013-2-25,78,53,32,45,35,24,76,55,27,30.21,30.01,13,2,14,0.00
2013-2-26,77,53,36,45,34,22,87,54,25,30.13,29.98,11,3,11,0.00
2013-2-27,83,56,35,42,31,22,64,42,20,30.27,30.13,6,2,6,0.00
2013-2-28,83,58,36,48,37,24,69,47,27,30.37,30.22,8,2,8,0.00
2013-3-1,85,62,43,53,44,37,86,55,27,30.35,30.12,11,2,11,0.00
2013-3-2,84,62,43,51,38,29,78,46,23,30.19,30.00,13,3,13,0.00
2013-3-3,78,60,46,53,42,35,80,52,34,30.05,29.92,12,3,12,0.00
2013-3-4,79,56,44,54,43,36,81,65,35,30.08,29.91,9,2,9,0.00
2013-3-5,68,52,43,50,41,35,83,69,41,30.03,29.91,18,4,18,0.00
2013-3-6,61,48,40,53,42,34,89,80,67,30.04,29.94,20,5,20,0.24
2013-3-7,58,47,40,48,41,34,87,78,67,29.95,29.77,14,2,14,0.26
2013-3-8,56,46,38,50,41,35,89,85,79,30.03,29.73,8,1,9,0.02
2013-3-9,68,48,36,55,42,33,89,78,59,30.23,30.02,14,3,14,0.02
2013-3-10,77,55,34,55,43,31,89,68,38,30.29,30.11,6,2,6,0.00
2013-3-11,85,59,39,53,43,34,85,59,32,30.21,29.99,5,2,5,0.00
2013-3-12,90,63,42,56,44,35,80,54,26,30.10,29.93,7,2,7,0.00
2013-3-13,93,67,44,60,45,30,82,50,20,30.11,29.95,10,3,10,0.00
2013-3-14,94,67,47,59,47,37,75,52,26,30.07,29.95,9,2,9,0.00
2013-3-15,93,70,49,54,44,36,74,44,20,30.04,29.88,10,3,12,0.00
2013-3-16,89,65,45,55,45,37,84,53,26,30.02,29.88,17,4,17,0.00
2013-3-17,85,62,44,49,40,32,76,50,20,30.05,29.89,12,4,12,0.00
2013-3-18,97,64,38,52,40,31,78,48,19,30.06,29.93,13,2,13,0.00
2013-3-19,110,66,39,58,37,-100,82,48,17,30.07,29.95,14,-74,17,0.00
2013-3-20,50,50,50,32,32,32,50,50,50,30.06,29.97,32,32,32,0.00
2013-3-21,86,48,32,58,38,-100,87,60,1,30.01,29.83,32,19,32,0.00
2013-3-22,79,54,35,51,30,-100,90,49,17,29.97,29.86,11,-17,12,0.00
2013-3-23,83,58,36,35,29,24,65,38,16,30.06,29.90,5,2,5,0.00
2013-3-24,98,65,40,46,35,27,65,39,14,30.04,29.83,14,3,14,0.00
2013-3-25,94,62,40,52,40,33,81,50,18,29.96,29.79,14,2,14,0.00
2013-3-26,96,62,41,52,42,34,85,55,20,29.95,29.80,14,3,14,0.00
2013-3-27,91,61,42,53,44,36,81,59,27,29.97,29.86,17,2,17,0.00
2013-3-28,86,59,44,57,47,40,87,68,37,30.03,29.93,12,2,12,0.02
2013-3-29,91,64,42,60,47,39,90,61,30,30.04,29.93,15,3,18,0.00
2013-3-30,85,62,47,53,48,42,86,63,30,30.03,29.95,21,4,21,0.00
2013-3-31,88,62,45,60,49,42,91,66,33,30.04,29.95,20,4,20,0.00
2013-4-1,77,58,46,59,49,40,90,74,43,30.08,30.01,21,4,21,0.06
2013-4-2,97,74,44,59,50,39,90,49,23,30.12,29.94,8,2,10,0.00
2013-4-3,88,64,44,56,46,38,84,57,27,30.07,29.87,15,3,15,0.00
2013-4-4,78,61,48,57,48,40,79,65,45,30.07,29.93,15,3,15,0.02
2013-4-5,82,62,51,55,48,40,83,62,29,30.11,29.96,9,3,10,0.00
2013-4-6,85,62,46,53,46,42,88,62,29,30.14,29.96,12,5,12,0.00
2013-4-7,85,63,49,53,47,41,85,61,30,30.08,29.82,14,5,14,0.00
2013-4-8,70,56,42,44,37,30,76,51,28,29.88,29.75,22,7,22,0.00
2013-4-9,81,61,41,43,35,31,73,42,20,29.99,29.87,15,4,15,0.00
2013-4-10,94,67,43,43,38,29,62,38,17,30.11,29.91,9,3,10,0.00
2013-4-11,86,65,48,50,45,39,80,52,28,29.98,29.72,13,4,17,0.00
2013-4-12,92,66,45,52,44,38,83,51,20,29.87,29.68,18,4,18,0.00
2013-4-13,90,63,44,51,43,36,79,52,25,29.86,29.68,15,4,15,0.00
2013-4-14,86,60,40,46,39,34,82,52,22,29.85,29.70,13,5,18,0.00
2013-4-15,74,55,40,46,38,26,81,56,29,29.89,29.76,19,5,19,0.00
2013-4-16,73,53,36,39,30,21,77,46,17,30.03,29.89,17,5,22,0.00
2013-4-17,77,58,39,38,29,24,65,37,17,30.16,30.03,12,3,12,0.00
2013-4-18,83,61,39,36,29,24,57,34,14,30.22,30.08,12,4,13,0.00
2013-4-19,92,60,42,41,33,27,58,40,16,30.20,29.94,10,3,10,0.00
2013-4-20,94,68,50,49,43,37,71,44,19,30.00,29.84,11,4,12,0.00
2013-4-21,101,73,49,47,39,34,62,35,12,29.96,29.82,12,3,12,0.00
2013-4-22,96,73,51,51,42,33,55,36,19,29.92,29.74,15,3,15,0.00
2013-4-23,97,68,47,52,42,36,72,44,15,29.87,29.74,21,3,22,0.00
2013-4-24,69,55,44,51,45,37,82,68,53,29.91,29.79,23,8,23,0.02
2013-4-25,79,56,47,54,45,41,84,68,38,30.04,29.90,22,3,22,0.00
2013-4-26,96,68,44,54,43,37,84,50,14,30.13,29.98,12,3,15,0.00
2013-4-27,103,68,46,53,44,39,76,49,17,30.14,29.94,8,3,9,0.00
2013-4-28,105,75,48,52,41,34,68,36,10,29.98,29.77,10,3,10,0.00
2013-4-29,104,77,52,52,44,36,60,34,16,29.84,29.66,14,2,15,0.00
2013-4-30,91,70,52,56,46,40,66,44,25,29.79,29.64,16,4,16,0.00
2013-5-1,96,69,44,52,43,35,77,45,14,30.03,29.79,13,2,13,0.00
2013-5-2,100,75,48,51,39,31,67,34,10,30.10,29.97,13,3,13,0.00
2013-5-3,102,77,52,43,35,26,46,25,10,30.03,29.72,18,4,18,0.00
2013-5-4,89,68,51,46,37,23,78,36,19,29.76,29.58,29,8,29,0.00
2013-5-5,66,57,52,49,47,46,81,70,55,29.78,29.64,20,6,24,0.00
2013-5-6,64,57,53,55,50,46,87,77,64,29.92,29.77,12,3,12,0.18
2013-5-7,81,63,52,54,48,41,83,61,36,29.98,29.88,22,4,22,0.00
2013-5-8,83,63,49,53,47,42,81,58,34,30.04,29.95,12,3,12,0.00
2013-5-9,93,64,44,52,46,40,86,58,22,30.08,29.95,19,4,19,0.00
2013-5-10,106,71,48,59,51,43,86,55,21,30.12,29.94,14,4,14,0.00
2013-5-11,111,79,54,61,52,43,76,45,18,30.05,29.91,16,4,16,0.00
2013-5-12,117,82,57,59,48,42,61,35,13,30.07,29.89,11,3,16,0.00
2013-5-13,112,78,56,51,44,29,63,37,11,30.01,29.83,15,3,17,0.00
2013-5-14,92,72,48,57,50,41,83,49,30,29.97,29.84,21,7,21,0.00
2013-5-15,101,70,45,53,45,40,86,49,15,30.03,29.87,10,4,11,0.00
2013-5-16,63,40,47,45,25,-100,85,69,35,29.97,29.83,12,-122,16,0.00
2013-5-17,88,65,47,49,44,40,79,53,23,29.96,29.87,14,5,14,0.00
2013-5-18,92,63,44,44,37,28,83,47,10,30.08,29.93,16,5,18,0.00
2013-5-19,100,70,49,51,45,40,86,48,17,30.04,29.84,16,5,16,0.00
2013-5-20,106,76,51,46,40,35,62,33,12,29.95,29.79,13,3,13,0.00
2013-5-21,96,62,54,50,22,-100,58,31,17,29.91,29.77,16,-126,16,0.00
2013-5-22,64,43,42,39,26,-100,81,59,17,29.91,29.75,60,-68,60,0.00
2013-5-23,60,38,44,42,15,-100,76,48,21,29.93,29.83,12,-153,12,0.00
2013-5-24,58,38,42,39,7,-100,80,50,25,29.95,29.84,20,-219,20,0.00
2013-5-25,52,43,52,39,14,-100,62,51,62,29.97,29.88,7,-173,7,0.00
2013-5-26,52,34,42,39,-10,-100,78,24,12,30.03,29.91,8,-250,8,0.00
2013-5-27,64,41,48,64,16,-100,79,31,19,30.03,29.90,11,-213,11,0.00
2013-5-28,76,50,59,64,35,-100,76,37,28,29.95,29.76,13,-115,13,0.00
2013-5-29,92,70,51,57,46,41,79,49,18,29.89,29.72,16,6,16,0.00
2013-5-30,95,68,46,46,40,28,82,44,11,29.90,29.78,16,5,16,0.00
2013-5-31,104,75,49,46,41,38,68,35,13,29.94,29.78,19,4,19,0.00
2013-6-1,109,81,57,48,43,39,55,30,12,29.86,29.66,10,4,10,0.00
2013-6-2,92,70,55,55,49,42,80,50,27,29.72,29.61,22,8,26,0.00
2013-6-3,79,63,54,55,51,48,82,67,43,29.80,29.70,19,4,19,0.00
2013-6-4,78,64,50,55,51,45,85,66,43,29.89,29.79,21,7,23,0.00
2013-6-5,90,65,49,59,50,45,88,64,34,29.93,29.78,21,4,21,0.00
2013-6-6,97,70,49,60,50,43,86,55,29,29.88,29.72,16,3,16,0.00
2013-6-7,58,46,51,48,28,-100,83,71,66,29.84,29.63,6,-123,6,0.00
2013-6-8,64,39,51,56,16,-100,83,51,36,29.79,29.64,26,-213,26,0.00
2013-6-9,76,53,55,57,27,-100,77,40,41,29.81,29.77,12,-168,12,0.00
2013-6-10,76,76,76,57,57,57,1,1,1,29.89,29.81,0,0,0,0.00
2013-6-11,78,74,58,57,55,46,66,10,1,29.90,29.77,1,0,1,0.00
2013-6-12,92,69,50,57,47,32,79,48,21,29.94,29.80,32,6,32,0.00
2013-6-13,64,42,46,41,26,-100,79,67,40,30.02,29.84,32,-96,32,0.00
2013-6-14,94,69,49,48,28,-100,70,32,14,29.91,29.72,13,-78,13,0.00
2013-6-15,88,70,51,52,43,33,68,40,25,29.93,29.78,20,5,20,0.00
2013-6-16,104,73,48,52,44,39,82,46,12,30.01,29.88,11,4,11,0.00
2013-6-17,104,72,53,51,43,-100,69,42,14,30.01,29.87,18,-4,18,0.00
2013-6-18,94,69,51,54,47,42,86,53,19,29.97,29.81,21,6,21,0.00
2013-6-19,97,69,50,47,44,41,74,45,18,29.97,29.82,17,6,18,0.00
2013-6-20,102,71,49,48,42,39,71,42,14,29.92,29.78,13,5,13,0.00
2013-6-21,103,71,50,48,43,39,75,44,14,29.91,29.78,11,5,11,0.00
2013-6-22,105,76,49,51,44,39,72,37,13,29.88,29.74,13,4,13,0.00
2013-6-23,96,71,53,56,48,-100,81,51,20,29.82,29.71,15,5,15,0.00
2013-6-24,82,67,56,60,52,-100,77,63,46,29.87,29.75,19,-6,20,0.00
2013-6-25,94,73,55,62,55,-100,86,59,32,29.92,29.83,16,-7,16,0.00
2013-6-26,106,81,62,66,60,56,84,56,25,29.97,29.84,14,4,14,0.00
2013-6-27,112,84,64,66,40,-100,74,39,10,29.98,29.88,57,-100,57,0.00
2013-6-28,117,89,70,63,49,-100,55,32,16,29.94,29.79,11,4,11,0.00
2013-6-29,88,60,71,53,30,-100,44,35,13,29.85,29.70,13,-117,15,0.00
2013-6-30,118,91,68,55,50,46,47,28,13,29.78,29.66,12,5,14,0.00
2013-7-1,99,70,68,61,25,-100,48,28,19,29.81,29.71,17,-183,17,0.00
2013-7-2,97,90,97,60,49,-100,30,28,30,29.86,29.79,12,-61,12,0.00
2013-7-3,97,83,97,60,37,-100,30,26,30,29.84,29.67,12,-138,12,0.00
2013-7-4,97,72,97,60,20,-100,30,22,30,29.73,29.62,12,-245,12,0.00
2013-7-5,97,82,97,60,35,-100,30,25,30,29.74,29.64,12,-150,12,0.00
2013-7-6,97,83,97,60,37,-100,30,26,30,29.76,29.64,12,-136,12,0.00
2013-7-7,97,78,97,60,30,-100,30,24,30,29.79,29.69,12,-180,12,0.00
2013-7-8,97,86,97,60,42,-100,30,27,30,29.90,29.79,12,-105,12,0.00
2013-7-9,97,75,97,60,25,-100,30,23,30,29.96,29.83,12,-214,12,0.00
2013-7-10,97,87,97,60,43,-100,30,27,30,29.90,29.89,12,-96,12,0.00